Weather History for Lafayette, IN

Change the Weather History Date:

Wednesday, June 6, 2012

  Actual Average Record
Temperature  
Mean Temperature 63 °F 69 °F  
Max Temperature 78 °F 80 °F 95 °F (1999)
Min Temperature 48 °F 58 °F 41 °F (1998)
Degree Days  
Heating Degree Days 2 1  
Month to date heating degree days 20 10  
Since 1 June heating degree days 20 10  
Since 1 July heating degree days 4399 5660  
Cooling Degree Days 0 5  
Month to date cooling degree days 6 28  
Year to date cooling degree days 202 105  
Since 1 June cooling degree days 6 28  
Growing Degree Days 12 (Base 50)    
Moisture  
Dew Point 45 °F    
Average Humidity 60    
Maximum Humidity 93    
Minimum Humidity 27    
Precipitation  
Precipitation 0.00 in 0.14 in 1.00 in (1972)
Month to date precipitation 0.07 0.89  
Year to date precipitation 10.82 14.91  
Sea Level Pressure  
Sea Level Pressure 30.04 in    
Wind  
Wind Speed 6 mph (NE)    
Max Wind Speed 16 mph    
Max Gust Speed 21 mph    
Visibility 10 miles    
Events      
T = Trace of Precipitation, MM = Missing Value Source: NWS Daily Summary

Daily Weather History Graph

Daily Weather History Graph

Search for Another Location

Airport:

Trip Planner

Search our weather history database for the weather conditions in past years. The results will help you decide how hot, cold, wet, or windy it might be!

Date:

Astronomy

Jun. 06, 2012 Rise Set
Actual Time 6:17 AM EDT 9:15 PM EDT
Civil Twilight 5:45 AM EDT 9:48 PM EDT
Nautical Twilight 5:03 AM EDT 10:29 PM EDT
Astronomical Twilight 4:15 AM EDT 11:18 PM EDT
Moon 11:26 PM EDT (6/6) 8:38 AM EDT (6/6)
Length of Visible Light 16h 03m
Length of Day
14h 57m
Waning Gibbous, 93% of the Moon is Illuminated
Jun 6
Waning Gibbous
Jun 11
Last Quarter
Jun 19
New
Jun 26
First Quarter
Jul 3
Full

Hourly Weather History & Observations

Time (EDT) Temp. Dew Point Humidity Pressure Visibility Wind Dir Wind Speed Gust Speed Precip Events Conditions
12:54 AM 52.0 °F 46.0 °F 80% 30.00 in 10.0 mi Calm Calm - N/A   Clear
1:54 AM 51.1 °F 46.0 °F 83% 30.00 in 10.0 mi Calm Calm - N/A   Clear
3:54 AM 51.1 °F 46.9 °F 86% 30.01 in 10.0 mi Calm Calm - N/A   Clear
4:54 AM 48.0 °F 46.0 °F 93% 30.02 in 10.0 mi Calm Calm - N/A   Clear
5:54 AM 50.0 °F 46.0 °F 86% 30.02 in 10.0 mi Calm Calm - N/A   Clear
6:54 AM 50.0 °F 46.0 °F 86% 30.04 in 10.0 mi NNE 3.5 mph - N/A   Clear
7:54 AM 57.0 °F 46.9 °F 69% 30.06 in 10.0 mi Calm Calm - N/A   Clear
8:54 AM 61.0 °F 48.0 °F 62% 30.07 in 10.0 mi Calm Calm - N/A   Clear
9:54 AM 64.9 °F 45.0 °F 48% 30.07 in 10.0 mi ENE 8.1 mph - N/A   Clear
10:54 AM 68.0 °F 46.0 °F 45% 30.06 in 10.0 mi ENE 12.7 mph - N/A   Clear
11:54 AM 70.0 °F 46.0 °F 42% 30.06 in 10.0 mi NE 10.4 mph - N/A   Partly Cloudy
12:54 PM 72.0 °F 45.0 °F 38% 30.06 in 10.0 mi ESE 10.4 mph 19.6 mph N/A   Partly Cloudy
1:54 PM 73.0 °F 44.1 °F 35% 30.05 in 10.0 mi East 11.5 mph 19.6 mph N/A   Partly Cloudy
2:54 PM 75.0 °F 43.0 °F 32% 30.04 in 10.0 mi NE 13.8 mph 19.6 mph N/A   Scattered Clouds
3:54 PM 77.0 °F 43.0 °F 30% 30.03 in 10.0 mi ENE 8.1 mph 19.6 mph N/A   Scattered Clouds
4:54 PM 75.9 °F 39.9 °F 27% 30.02 in 10.0 mi North 5.8 mph - N/A   Clear
6:54 PM 75.0 °F 39.9 °F 28% 30.02 in 10.0 mi Variable 3.5 mph - N/A   Partly Cloudy
7:54 PM 73.9 °F 39.9 °F 29% 30.01 in 10.0 mi NE 6.9 mph - N/A   Clear
8:54 PM 68.0 °F 46.0 °F 45% 30.02 in 10.0 mi NNE 3.5 mph - N/A   Clear
9:54 PM 66.0 °F 46.0 °F 48% 30.03 in 10.0 mi North 10.4 mph - N/A   Clear
10:54 PM 64.9 °F 46.0 °F 50% 30.04 in 10.0 mi North 8.1 mph - N/A   Clear
11:54 PM 63.0 °F 45.0 °F 52% 30.07 in 10.0 mi NNE 8.1 mph - N/A   Clear